TimeCEST,TemperatureF,Dew PointF,Humidity,Sea Level PressureIn,VisibilityMPH,Wind Direction,Wind SpeedMPH,Gust SpeedMPH,PrecipitationIn,Events,Conditions,WindDirDegrees,DateUTC
6:00 AM,48.2,41.0,76,30.06,-9999.0,SE,2.3,-,N/A,,Clear,130,2012-10-05 04:00:00
6:30 AM,48.2,41.0,76,30.06,-9999.0,East,3.5,-,N/A,,Clear,80,2012-10-05 04:30:00
7:00 AM,46.4,39.2,76,30.06,-9999.0,ENE,3.5,-,N/A,,Clear,70,2012-10-05 05:00:00
7:30 AM,44.6,41.0,87,30.06,-9999.0,ENE,2.3,-,N/A,,Clear,70,2012-10-05 05:30:00
8:00 AM,44.6,39.2,81,30.09,-9999.0,East,3.5,-,N/A,,Clear,100,2012-10-05 06:00:00
8:30 AM,44.6,39.2,81,30.09,-9999.0,ESE,3.5,-,N/A,,Clear,110,2012-10-05 06:30:00
9:00 AM,46.4,41.0,81,30.09,-9999.0,East,3.5,-,N/A,,Clear,100,2012-10-05 07:00:00
9:30 AM,50.0,42.8,76,30.09,-9999.0,East,3.5,-,N/A,,Clear,90,2012-10-05 07:30:00
10:00 AM,53.6,44.6,72,30.12,-9999.0,SE,5.8,-,N/A,,Clear,130,2012-10-05 08:00:00
10:30 AM,53.6,44.6,72,30.12,-9999.0,SE,5.8,-,N/A,,Clear,130,2012-10-05 08:30:00
11:00 AM,59.0,46.4,63,30.12,-9999.0,SSE,5.8,-,N/A,,Clear,160,2012-10-05 09:00:00
11:30 AM,60.8,46.4,59,30.12,-9999.0,South,3.5,-,N/A,,Clear,190,2012-10-05 09:30:00
12:00 PM,64.4,46.4,52,30.12,-9999.0,South,3.5,-,N/A,,Clear,170,2012-10-05 10:00:00
12:30 PM,66.2,46.4,49,30.12,-9999.0,SSW,3.5,-,N/A,,Clear,200,2012-10-05 10:30:00
1:00 PM,68.0,44.6,43,30.12,-9999.0,SSW,3.5,-,N/A,,Clear,200,2012-10-05 11:00:00
1:30 PM,69.8,42.8,38,30.12,-9999.0,SW,4.6,-,N/A,,Clear,230,2012-10-05 11:30:00
2:00 PM,71.6,42.8,35,30.12,-9999.0,SW,5.8,-,N/A,,Clear,230,2012-10-05 12:00:00
2:30 PM,73.4,41.0,31,30.12,-9999.0,SW,6.9,-,N/A,,Clear,230,2012-10-05 12:30:00
3:00 PM,75.2,37.4,25,30.12,-9999.0,West,9.2,-,N/A,,Clear,260,2012-10-05 13:00:00
3:30 PM,75.2,35.6,24,30.09,-9999.0,WSW,10.4,-,N/A,,Clear,240,2012-10-05 13:30:00
4:00 PM,75.2,35.6,24,30.09,-9999.0,WSW,9.2,-,N/A,,Clear,240,2012-10-05 14:00:00
4:30 PM,75.2,35.6,24,30.09,-9999.0,WSW,5.8,-,N/A,,Clear,240,2012-10-05 14:30:00
5:00 PM,77.0,33.8,21,30.09,-9999.0,WSW,5.8,-,N/A,,Clear,240,2012-10-05 15:00:00
5:30 PM,77.0,33.8,21,30.09,-9999.0,WSW,5.8,-,N/A,,Clear,240,2012-10-05 15:30:00
6:00 PM,77.0,33.8,21,30.09,-9999.0,WSW,6.9,-,N/A,,Clear,250,2012-10-05 16:00:00
6:30 PM,75.2,35.6,24,30.09,-9999.0,West,4.6,-,N/A,,Clear,260,2012-10-05 16:30:00
7:00 PM,75.2,35.6,24,30.09,-9999.0,WSW,4.6,-,N/A,,Clear,250,2012-10-05 17:00:00
7:30 PM,71.6,37.4,29,30.09,-9999.0,WSW,3.5,-,N/A,,Clear,250,2012-10-05 17:30:00
8:00 PM,69.8,35.6,28,30.09,-9999.0,WSW,2.3,-,N/A,,Clear,240,2012-10-05 18:00:00
8:30 PM,68.0,37.4,33,30.09,-9999.0,SSW,1.2,-,N/A,,Clear,210,2012-10-05 18:30:00
9:00 PM,66.2,37.4,35,30.09,-9999.0,Calm,Calm,-,N/A,,Clear,0,2012-10-05 19:00:00
9:30 PM,64.4,37.4,37,30.09,-9999.0,Calm,Calm,-,N/A,,Clear,0,2012-10-05 19:30:00
10:00 PM,62.6,37.4,39,30.09,-9999.0,SSE,3.5,-,N/A,,Clear,160,2012-10-05 20:00:00
10:30 PM,60.8,37.4,42,30.12,-9999.0,SE,4.6,-,N/A,,Clear,130,2012-10-05 20:30:00